Weather History for KAFJ - April, 2013

Change the Weather History Date:

Friday, April 12, 2013

  Actual Average Record
Temperature  
Mean Temperature 53 °F -  
Max Temperature 62 °F 59 °F 82 °F (2001)
Min Temperature 44 °F 37 °F 23 °F (2009)
Degree Days  
Heating Degree Days 12    
Growing Degree Days 3 (Base 50)    
Moisture  
Dew Point 47 °F    
Average Humidity 72    
Maximum Humidity 100    
Minimum Humidity 45    
Precipitation  
Precipitation 0.00 in - - ()
Sea Level Pressure  
Sea Level Pressure 29.66 in    
Wind  
Wind Speed 8 mph (WSW)    
Max Wind Speed 22 mph    
Max Gust Speed 28 mph    
Visibility 9 miles    
Events      
Averages and records for this station are not official NWS values.
T = Trace of Precipitation, MM = Missing Value Source: NWS Daily Summary

Daily Weather History Graph

Daily Weather History Graph

Search for Another Location

Airport or City:

Trip Planner

Search our weather history database for the weather conditions in past years. The results will help you decide how hot, cold, wet, or windy it might be!

Date:

Astronomy

Apr. 12, 2013 Rise Set
Actual Time 6:47 AM EDT 7:57 PM EDT
Civil Twilight 6:19 AM EDT 8:25 PM EDT
Nautical Twilight 5:46 AM EDT 8:58 PM EDT
Astronomical Twilight 5:11 AM EDT 9:33 PM EDT
Moon 7:56 AM EDT (4/12) 10:26 PM EDT (4/12)
Length of Visible Light 14h 05m
Length of Day
13h 09m
Waxing Crescent, 5% of the Moon is Illuminated
Apr 12
Waxing Crescent
Apr 18
First Quarter
Apr 25
Full
May 2
Last Quarter
May 9
New

Hourly Weather History & Observations

Time (EDT) Temp. Windchill Dew Point Humidity Pressure Visibility Wind Dir Wind Speed Gust Speed Precip Events Conditions
12:15 AM 60.8 °F - 51.8 °F 72% 29.60 in 10.0 mi NE 5.8 mph - N/A   Mostly Cloudy
12:35 AM 60.8 °F - 51.8 °F 72% 29.59 in 10.0 mi NE 5.8 mph - N/A   Overcast
12:55 AM 59.0 °F - 51.8 °F 77% 29.59 in 10.0 mi NE 3.5 mph - N/A   Overcast
1:15 AM 59.0 °F - 51.8 °F 77% 29.58 in 10.0 mi Calm Calm - N/A   Overcast
1:35 AM 60.8 °F - 51.8 °F 72% 29.57 in 10.0 mi Calm Calm - N/A   Overcast
1:55 AM 59.0 °F - 51.8 °F 77% 29.57 in 10.0 mi Calm Calm - N/A   Mostly Cloudy
2:15 AM 57.2 °F - 53.6 °F 88% 29.57 in 10.0 mi WSW 3.5 mph - N/A   Overcast
2:35 AM 62.6 °F - 53.6 °F 72% 29.57 in 10.0 mi West 6.9 mph - N/A   Overcast
2:55 AM 60.8 °F - 55.4 °F 82% 29.57 in 10.0 mi West 3.5 mph - N/A   Overcast
3:15 AM 59.0 °F - 55.4 °F 88% 29.57 in 7.0 mi Calm Calm - N/A   Overcast
3:35 AM 59.0 °F - 55.4 °F 88% 29.57 in 5.0 mi Calm Calm - N/A   Overcast
3:55 AM 57.2 °F - 55.4 °F 94% 29.56 in 2.5 mi Calm Calm - N/A   Overcast
4:15 AM 57.2 °F - 57.2 °F 100% 29.55 in 4.0 mi Calm Calm - N/A   Overcast
4:35 AM 60.8 °F - 59.0 °F 94% 29.55 in 7.0 mi SSE 5.8 mph - N/A   Overcast
4:55 AM 60.8 °F - 59.0 °F 94% 29.56 in 8.0 mi SSW 4.6 mph - N/A   Overcast
5:15 AM 60.8 °F - 57.2 °F 88% 29.56 in 7.0 mi South 6.9 mph - N/A   Overcast
5:35 AM 60.8 °F - 57.2 °F 88% 29.56 in 10.0 mi South 5.8 mph - N/A   Overcast
5:55 AM 60.8 °F - 57.2 °F 88% 29.56 in 7.0 mi South 9.2 mph - N/A   Overcast
6:15 AM 60.8 °F - 57.2 °F 88% 29.54 in 8.0 mi South 8.1 mph - N/A   Mostly Cloudy
6:35 AM 60.8 °F - 57.2 °F 88% 29.52 in 10.0 mi SSE 6.9 mph - N/A   Overcast
6:55 AM 60.8 °F - 57.2 °F 88% 29.52 in 10.0 mi South 6.9 mph - N/A   Overcast
7:15 AM 60.8 °F - 57.2 °F 88% 29.53 in 10.0 mi South 6.9 mph - N/A   Overcast
7:35 AM 60.8 °F - 57.2 °F 88% 29.53 in 8.0 mi South 9.2 mph - N/A   Overcast
7:55 AM 59.0 °F - 57.2 °F 94% 29.53 in 10.0 mi South 8.1 mph - N/A   Overcast
8:15 AM 60.8 °F - 57.2 °F 88% 29.53 in 10.0 mi South 10.4 mph - N/A   Overcast
8:35 AM 60.8 °F - 57.2 °F 88% 29.54 in 10.0 mi SSW 6.9 mph - N/A   Overcast
8:55 AM 60.8 °F - 57.2 °F 88% 29.55 in 10.0 mi SSW 11.5 mph 17.3 mph N/A   Overcast
9:15 AM 62.6 °F - 57.2 °F 82% 29.56 in 10.0 mi SW 13.8 mph 20.7 mph N/A   Overcast
9:35 AM 62.6 °F - 57.2 °F 82% 29.56 in 10.0 mi SW 11.5 mph 18.4 mph N/A   Mostly Cloudy
9:55 AM 60.8 °F - 57.2 °F 88% 29.57 in 3.0 mi SW 11.5 mph 18.4 mph N/A   Overcast
10:15 AM 60.8 °F - 57.2 °F 88% 29.59 in 10.0 mi SW 16.1 mph 21.9 mph N/A   Overcast
10:55 AM 60.8 °F - 55.4 °F 82% 29.61 in 10.0 mi WSW 10.4 mph 23.0 mph N/A   Mostly Cloudy
11:15 AM 57.2 °F - 53.6 °F 88% 29.63 in 10.0 mi WSW 13.8 mph 21.9 mph N/A   Overcast
11:35 AM 57.2 °F - 51.8 °F 82% 29.64 in 10.0 mi WSW 19.6 mph 27.6 mph N/A   Mostly Cloudy
11:55 AM 57.2 °F - 48.2 °F 72% 29.65 in 10.0 mi SW 17.3 mph 26.5 mph N/A   Overcast
12:15 PM 57.2 °F - 48.2 °F 72% 29.66 in 10.0 mi WSW 18.4 mph 26.5 mph N/A   Overcast
12:35 PM 57.2 °F - 46.4 °F 67% 29.66 in 10.0 mi WSW 12.7 mph 20.7 mph N/A   Overcast
12:55 PM 60.8 °F - 48.2 °F 63% 29.66 in 10.0 mi WSW 15.0 mph 21.9 mph N/A   Overcast
1:15 PM 59.0 °F - 48.2 °F 67% 29.66 in 10.0 mi WSW 15.0 mph 19.6 mph N/A   Overcast
1:35 PM 60.8 °F - 48.2 °F 63% 29.66 in 10.0 mi SW 16.1 mph 24.2 mph N/A   Mostly Cloudy
1:55 PM 60.8 °F - 48.2 °F 63% 29.65 in 10.0 mi WSW 16.1 mph 21.9 mph N/A   Mostly Cloudy
2:15 PM 60.8 °F - 46.4 °F 59% 29.66 in 10.0 mi West 15.0 mph 19.6 mph N/A   Mostly Cloudy
2:35 PM 59.0 °F - 44.6 °F 59% 29.66 in 10.0 mi West 11.5 mph 25.3 mph N/A   Overcast
2:55 PM 59.0 °F - 46.4 °F 63% 29.66 in 10.0 mi SW 10.4 mph 21.9 mph N/A   Overcast
3:15 PM 60.8 °F - 44.6 °F 55% 29.67 in 10.0 mi WSW 13.8 mph 26.5 mph N/A   Overcast
3:35 PM 60.8 °F - 42.8 °F 52% 29.67 in 10.0 mi WSW 19.6 mph 26.5 mph N/A   Overcast
3:55 PM 60.8 °F - 42.8 °F 52% 29.67 in 10.0 mi West 15.0 mph 23.0 mph N/A   Mostly Cloudy
4:15 PM 59.0 °F - 42.8 °F 55% 29.68 in 10.0 mi WSW 15.0 mph 25.3 mph N/A   Mostly Cloudy
4:35 PM 60.8 °F - 39.2 °F 45% 29.69 in 10.0 mi WSW 21.9 mph 27.6 mph N/A   Mostly Cloudy
4:55 PM 57.2 °F - 37.4 °F 48% 29.69 in 10.0 mi WSW 18.4 mph 26.5 mph N/A   Mostly Cloudy
5:15 PM 57.2 °F - 37.4 °F 48% 29.71 in 10.0 mi West 19.6 mph 25.3 mph N/A   Overcast
5:35 PM 53.6 °F - 39.2 °F 58% 29.73 in 10.0 mi West 15.0 mph 24.2 mph N/A   Mostly Cloudy
5:55 PM 53.6 °F - 39.2 °F 58% 29.75 in 10.0 mi West 15.0 mph 19.6 mph N/A   Partly Cloudy
6:15 PM 50.0 °F - 37.4 °F 62% 29.76 in 10.0 mi West 13.8 mph 21.9 mph N/A   Partly Cloudy
6:35 PM 48.2 °F - 35.6 °F 62% 29.78 in 10.0 mi West 10.4 mph 19.6 mph N/A   Scattered Clouds
6:55 PM 48.2 °F - 35.6 °F 62% 29.80 in 10.0 mi West 16.1 mph 23.0 mph N/A   Mostly Cloudy
7:15 PM 46.4 °F 40.7 °F 33.8 °F 62% 29.81 in 10.0 mi WNW 12.7 mph 21.9 mph N/A   Overcast
7:35 PM 46.4 °F 41.5 °F 32.0 °F 57% 29.82 in 10.0 mi West 10.4 mph 19.6 mph N/A   Overcast
7:55 PM 46.4 °F 40.4 °F 32.0 °F 57% 29.83 in 10.0 mi West 13.8 mph 17.3 mph N/A   Overcast
8:15 PM 46.4 °F 41.5 °F 32.0 °F 57% 29.83 in 10.0 mi WNW 10.4 mph - N/A   Overcast
8:35 PM 46.4 °F 45.2 °F 32.0 °F 57% 29.83 in 10.0 mi West 3.5 mph - N/A   Overcast
8:55 PM 46.4 °F 42.9 °F 32.0 °F 57% 29.84 in 10.0 mi West 6.9 mph - N/A   Overcast
9:15 PM 46.4 °F 43.5 °F 33.8 °F 62% 29.85 in 10.0 mi West 5.8 mph - N/A   Overcast
9:35 PM 46.4 °F 43.5 °F 33.8 °F 62% 29.86 in 10.0 mi West 5.8 mph - N/A   Overcast
9:55 PM 44.6 °F 43.1 °F 33.8 °F 66% 29.86 in 10.0 mi West 3.5 mph - N/A   Overcast
10:15 PM 44.6 °F 42.2 °F 33.8 °F 66% 29.87 in 10.0 mi West 4.6 mph - N/A   Overcast
10:35 PM 44.6 °F 40.7 °F 33.8 °F 66% 29.87 in 10.0 mi WSW 6.9 mph - N/A   Overcast
10:55 PM 44.6 °F 40.7 °F 33.8 °F 66% 29.87 in 10.0 mi WSW 6.9 mph - N/A   Overcast
11:15 PM 44.6 °F 39.7 °F 33.8 °F 66% 29.87 in 10.0 mi West 9.2 mph - N/A   Overcast
11:35 PM 44.6 °F 39.7 °F 33.8 °F 66% 29.87 in 10.0 mi WSW 9.2 mph - N/A   Overcast
11:55 PM 44.6 °F 39.7 °F 33.8 °F 66% 29.87 in 10.0 mi WSW 9.2 mph - N/A   Overcast